Location: Barcelona
(41.3829°N, 2.1774°E)
Time: 14:51:42
(UTC+00:00)

ISS - Pass Details

Date: 11 July 2024
Orbit: 410 x 424 km, 51.6° (Epoch: 14 July)

Event Time Altitude Azimuth Distance (km) Brightness Sun altitude
Rises 03:26:47 0° 298° (WNW) 2,350 -0.2 -10.1°
Reaches altitude 10° 03:29:01 10° 287° (WNW) 1,486 -1.3 -9.8°
Maximum altitude 03:31:59 30° 224° (SW) 765 -3.0 -9.4°
Drops below altitude 10° 03:34:58 10° 161° (SSE) 1,485 -1.2 -8.9°
Sets 03:37:12 0° 150° (SSE) 2,347 -0.1 -8.6°
